Regional Weather Roundup
Issued by NWS

Home | Current Version | Previous Version | Graphics & Text | Print | Product List | Glossary On
Versions: 1 2 3 4 5 6 7 8 9 10 11 12 13 14 15 16 17 18 19 20 21 22 23 24 25 26 27 28 29 30 31 32 33 34 35 36 37 38 39 40 41 42 43 44 45 46 47 48 49 50
880
ASUS43 KLSX 141507
RWRMO

WEATHER SUMMARY FOR MISSOURI
NATIONAL WEATHER SERVICE SPRINGFIELD MO
900 AM CST SUN FEB 14 2016

NOTE: "FAIR" INDICATES FEW OR NO CLOUDS BELOW 12,000 FEET WITH NO
       SIGNIFICANT WEATHER AND/OR OBSTRUCTIONS TO VISIBILITY.
       CURRENT SKY AND/OR WEATHER CONDITIONS ARE NOT AVAILABLE FOR
       CHILLICOTHE AND FARMINGTON.

MOZ001>031-035>038-043-044-053-054-141600-
...NORTHERN AND WESTERN MISSOURI...

CITY           SKY/WX    TMP DP  RH WIND       PRES   REMARKS
KANSAS CTY INT MOSUNNY   29  18  63 S15       29.96F WCI  18
KANSAS C DTWN  CLOUDY    29  19  66 SE6       30.00F WCI  23
LEE`S SUMMIT   PTSUNNY   28  23  81 S9        30.00S WCI  19
ST JOSEPH      CLOUDY    28  11  48 S10       29.98F WCI  19
CHILLICOTHE      N/A     24  16  71 S15G22    30.03F WCI  11
KIRKSVILLE     CLOUDY    20  15  81 SE20      30.03F WCI   4

$$
MOZ066>068-077>081-088>096-101>105-141600-
...SOUTHWEST MISSOURI...

CITY           SKY/WX    TMP DP  RH WIND       PRES   REMARKS
SPRINGFIELD    CLOUDY    26  17  68 SE12      30.04S HAZE    WCI  16
JOPLIN         CLOUDY    30  25  81 SE13      30.01F WCI  20

$$
MOZ032>034-039>042-045>050-055>058-069>072-141600-
...CENTRAL MISSOURI...

CITY           SKY/WX    TMP DP  RH WIND       PRES   REMARKS
COLUMBIA       FRZ DRZL  22  19  89 SE10G21   30.05F WCI  11
JEFFERSON CITY CLOUDY    23  20  88 SE13      30.09F FOG     WCI  11
ROLLA          CLOUDY    24  21  88 S17       30.05F WCI  11
SEDALIA        CLOUDY    28  24  85 S14       30.03F WCI  17
WARRENSBURG    CLOUDY    30  27  86 S8        30.02S WCI  23
OSAGE BEACH    CLOUDY    27  19  74 CALM      30.07S

$$
MOZ051-052-059>065-141600-
...EAST CENTRAL MISSOURI...

CITY           SKY/WX    TMP DP  RH WIND       PRES   REMARKS
ST LOUIS INTL  SNOW      22  17  81 SE13      30.18S VSB 1/2 WCI  10
SPIRIT OF STL  SNOW      21  19  92 SE7       30.16F VSB 1/4 WCI  12
ST CHARLES     SNOW      22  18  85 SE14      30.19S VSB 1/2 WCI   9

$$
MOZ072>076-082>087-097>100-106>115-141600-
...SOUTH CENTRAL AND SOUTHEAST MISSOURI...

CITY           SKY/WX    TMP DP  RH WIND       PRES   REMARKS
CAPE GIRARDEAU MIX PCPN  23  20  88 E13       30.23S FOG     WCI  11
FARMINGTON     LGT SNOW  19  18  93 SE9       30.14F FOG     WCI   9
POPLAR BLUFF   FRZ RAIN  27  21  78 SE12G18   30.18F WCI  17
WEST PLAINS    CLOUDY    24  19  81 SE7       30.10S WCI  16

$$



USA.gov is the U.S. government's official web portal to all federal, state and local government web resources and services.